Weather History for CYVR - October, 2012

Change the Weather History Date:

Thursday, October 25, 2012

  Actual Average Record
Temperature  
Mean Temperature 45 °F -  
Max Temperature 51 °F 50 °F 60 °F (2005)
Min Temperature 39 °F 41 °F 39 °F (2007)
Degree Days  
Heating Degree Days 20    
Moisture  
Dew Point 40 °F    
Average Humidity 81    
Maximum Humidity 93    
Minimum Humidity 66    
Precipitation  
Precipitation 0.00 in - - ()
Sea Level Pressure  
Sea Level Pressure 30.36 in    
Wind  
Wind Speed 3 mph ()    
Max Wind Speed 8 mph    
Max Gust Speed -    
Visibility 15.0 miles    
Events      
Averages and records for this station are not official NWS values.
T = Trace of Precipitation, MM = Missing Value Source: Averaged Metar Reports

Daily Weather History Graph

Daily Weather History Graph

Search for Another Location

Airport or City:

Trip Planner

Search our weather history database for the weather conditions in past years. The results will help you decide how hot, cold, wet, or windy it might be!

Date:

Astronomy

Oct. 25, 2012 Rise Set
Actual Time 7:50 AM PDT 6:02 PM PDT
Civil Twilight 7:17 AM PDT 6:35 PM PDT
Nautical Twilight 6:40 AM PDT 7:12 PM PDT
Astronomical Twilight 6:03 AM PDT 7:49 PM PDT
Moon 4:06 PM PDT (10/25) 3:33 AM PDT (10/25)
Length of Visible Light 11h 17m
Length of Day
10h 12m
Waxing Gibbous, 85% of the Moon is Illuminated
Oct 25
Waxing Gibbous
Oct 29
Full
Nov 6
Last Quarter
Nov 13
New
Nov 20
First Quarter

Hourly Weather History & Observations

Time (PDT) Temp. Windchill Dew Point Humidity Pressure Visibility Wind Dir Wind Speed Gust Speed Precip Events Conditions
12:00 AM 44.6 °F - 41.0 °F 87% 30.20 in 15.0 mi SE 2.3 mph - N/A   Mostly Cloudy
1:00 AM 44.6 °F 43.1 °F 41.0 °F 87% 30.22 in 15.0 mi ESE 3.5 mph - N/A   Mostly Cloudy
2:00 AM 44.6 °F 43.1 °F 41.0 °F 87% 30.24 in 15.0 mi ESE 3.5 mph - N/A   Mostly Cloudy
3:00 AM 44.6 °F 42.2 °F 39.2 °F 81% 30.26 in 15.0 mi ESE 4.6 mph - N/A   Mostly Cloudy
4:00 AM 42.8 °F 41.1 °F 39.2 °F 87% 30.28 in 15.0 mi ESE 3.5 mph - N/A   Mostly Cloudy
5:00 AM 42 °F - 39 °F 83% 30.30 in 15 mi East 3.5 mph - -   Partly Cloudy
5:00 AM 41.0 °F 39.0 °F 39.2 °F 93% 30.30 in 15.0 mi East 3.5 mph - N/A   Mostly Cloudy
6:00 AM 41.0 °F 39.0 °F 37.4 °F 87% 30.32 in 15.0 mi East 3.5 mph - N/A   Mostly Cloudy
7:00 AM 39.2 °F 35.0 °F 37.4 °F 93% 30.34 in 15.0 mi East 5.8 mph - N/A   Mostly Cloudy
8:00 AM 41.0 °F 38.0 °F 39.2 °F 93% 30.36 in 15.0 mi East 4.6 mph - N/A   Overcast
9:00 AM 41.0 °F 36.4 °F 39.2 °F 93% 30.38 in 15.0 mi ESE 6.9 mph - N/A   Mostly Cloudy
10:00 AM 44.6 °F 40.7 °F 41.0 °F 87% 30.40 in 15.0 mi ESE 6.9 mph - N/A   Mostly Cloudy
11:00 AM 47 °F - 41 °F 73% 30.42 in 15 mi East 3.5 mph - -   Mostly Cloudy
11:00 AM 46.4 °F 45.2 °F 41.0 °F 81% 30.42 in 15.0 mi East 3.5 mph - N/A   Mostly Cloudy
12:00 PM 50.0 °F - 42.8 °F 76% 30.43 in 15.0 mi Calm Calm - N/A   Mostly Cloudy
1:00 PM 50.0 °F - 41.0 °F 71% 30.44 in 15.0 mi West 6.9 mph - N/A   Scattered Clouds
2:00 PM 50.0 °F - 41.0 °F 71% 30.43 in 15.0 mi Calm Calm - N/A   Mostly Cloudy
3:00 PM 50.0 °F - 41.0 °F 71% 30.42 in 15.0 mi SW 3.5 mph - N/A   Overcast
4:00 PM 50.0 °F - 41.0 °F 71% 30.42 in 15.0 mi WNW 3.5 mph - N/A   Overcast
5:00 PM 49 °F - 41 °F 66% 30.42 in 15 mi Calm Calm - -   Overcast
5:00 PM 48.2 °F - 41.0 °F 76% 30.42 in 15.0 mi Calm Calm - N/A   Overcast
6:00 PM 46.4 °F 45.2 °F 41.0 °F 81% 30.42 in 15.0 mi NE 3.5 mph - N/A   Overcast
7:00 PM 46.4 °F 44.3 °F 41.0 °F 81% 30.41 in 15.0 mi East 4.6 mph - N/A   Overcast
8:00 PM 46.4 °F 43.5 °F 41.0 °F 81% 30.41 in 15.0 mi East 5.8 mph - N/A   Overcast
9:00 PM 46.4 °F 42.4 °F 41.0 °F 81% 30.39 in 15.0 mi East 8.1 mph - N/A   Overcast
10:00 PM 46.4 °F 42.4 °F 41.0 °F 81% 30.38 in 15.0 mi East 8.1 mph - N/A   Overcast
11:00 PM 46 °F - 40 °F 74% 30.36 in 15 mi East 5.8 mph - -   Overcast
11:00 PM 46.4 °F 43.5 °F 41.0 °F 81% 30.36 in 15.0 mi East 5.8 mph - N/A   Overcast